EUTELSAT 21B

Last updated on Nov. 19, 2019, 4:25 a.m. UTC

1 38992U 12062B   19321.86213735  .00000136  00000-0  00000-0 0  9993
2 38992   0.0700  18.8346 0002290 213.4833 156.2802  1.00274038 25744
UTC
Height (km)
Latitude
Longitude
Inclination
Orbital Period
UTC large
Height (km)
Speed (km/s)
/
Latitude / Longitude
Inclination (degrees)
Orbital Period (minutes)
Azimuth
Elevation
Range (km)
Doppler Factor
iOS Compass Heading
iOS Angle

Next 30 passes for location: Hong Kong

Rise time Rise Azimuth (degrees) Set time Set Azimuth (degrees) Duration Max altitude (degrees)

No matching passes for this satellites